Precipitable_Water
0.22 0.15 0.13 0.12 0.13 0.15 0.19 0.21 0.19 0.19 0.18 0.17 0.15 0.13 0.11 0.10 0.10 0.12 0.14 0.17 0.19 0.16 0.15 0.15 0.16 0.16 0.16 0.16 0.16 0.18 0.19 0.19 0.19 0.19 0.20 0.21 0.22 0.22 0.22 0.22 0.24 0.25 0.26 0.28 0.29 0.30 0.31 0.31 0.31 0.31 0.32 0.32 0.32 0.32 0.32 0.32 0.32 0.33 0.33 0.34 0.34 0.36 0.37 0.37 0.37 0.37 0.37 0.37 0.37 0.37 0.37 0.36 0.37 0.37 0.37 0.37 0.37 0.36 0.35 0.35 0.34 0.34 0.34 0.34 0.34 0.34
0.23 0.15 0.14 0.17 0.17 0.17 0.18 0.19 0.19 0.18 0.17 0.14 0.12 0.11 0.10 0.11 0.09 0.12 0.14 0.19 0.20 0.16 0.14 0.16 0.16 0.15 0.14 0.15 0.17 0.19 0.19 0.18 0.19 0.19 0.20 0.21 0.22 0.22 0.22 0.23 0.24 0.26 0.28 0.28 0.27 0.28 0.29 0.30 0.30 0.31 0.31 0.32 0.31 0.32 0.33 0.33 0.34 0.34 0.35 0.35 0.36 0.37 0.37 0.37 0.38 0.38 0.38 0.38 0.38 0.37 0.37 0.37 0.36 0.36 0.35 0.34 0.35 0.34 0.35 0.35 0.34 0.34 0.34 0.34 0.34 0.34
0.16 0.13 0.14 0.17 0.20 0.21 0.21 0.19 0.19 0.16 0.13 0.12 0.11 0.11 0.10 0.10 0.13 0.16 0.17 0.20 0.21 0.17 0.14 0.16 0.13 0.13 0.15 0.17 0.18 0.18 0.19 0.20 0.21 0.21 0.21 0.21 0.22 0.22 0.23 0.24 0.25 0.26 0.27 0.28 0.29 0.30 0.30 0.31 0.32 0.32 0.33 0.33 0.33 0.33 0.33 0.33 0.33 0.33 0.33 0.34 0.35 0.35 0.36 0.36 0.37 0.37 0.36 0.36 0.36 0.34 0.33 0.33 0.32 0.33 0.33 0.32 0.32 0.32 0.32 0.32 0.32 0.33 0.32 0.32 0.32 0.33
0.12 0.13 0.19 0.22 0.22 0.20 0.19 0.19 0.17 0.15 0.14 0.12 0.11 0.11 0.09 0.12 0.12 0.10 0.17 0.20 0.20 0.17 0.14 0.14 0.13 0.14 0.16 0.18 0.17 0.19 0.19 0.21 0.23 0.23 0.23 0.23 0.22 0.23 0.24 0.25 0.25 0.26 0.27 0.27 0.28 0.29 0.30 0.31 0.31 0.31 0.31 0.31 0.31 0.29 0.30 0.30 0.29 0.30 0.30 0.30 0.30 0.30 0.30 0.30 0.31 0.31 0.32 0.32 0.32 0.32 0.32 0.32 0.32 0.31 0.32 0.31 0.31 0.31 0.31 0.30 0.31 0.31 0.31 0.31 0.31 0.30
0.13 0.17 0.22 0.21 0.20 0.17 0.14 0.15 0.14 0.13 0.11 0.13 0.13 0.12 0.12 0.13 0.15 0.14 0.14 0.17 0.17 0.17 0.17 0.16 0.14 0.12 0.17 0.15 0.16 0.19 0.22 0.21 0.22 0.22 0.23 0.24 0.24 0.25 0.26 0.27 0.27 0.26 0.26 0.27 0.27 0.27 0.27 0.27 0.28 0.28 0.29 0.29 0.28 0.28 0.29 0.29 0.29 0.29 0.28 0.27 0.27 0.27 0.27 0.28 0.28 0.29 0.31 0.31 0.31 0.31 0.31 0.31 0.30 0.30 0.30 0.29 0.28 0.29 0.29 0.30 0.30 0.30 0.30 0.29 0.28 0.27
0.17 0.21 0.21 0.18 0.17 0.17 0.15 0.13 0.13 0.14 0.12 0.13 0.16 0.16 0.15 0.16 0.15 0.15 0.16 0.14 0.12 0.11 0.17 0.15 0.08 0.09 0.14 0.15 0.16 0.18 0.19 0.20 0.22 0.21 0.22 0.23 0.24 0.25 0.25 0.25 0.26 0.26 0.26 0.25 0.25 0.26 0.26 0.27 0.27 0.28 0.28 0.28 0.29 0.29 0.30 0.30 0.29 0.28 0.28 0.27 0.27 0.27 0.27 0.27 0.27 0.28 0.28 0.28 0.27 0.27 0.26 0.26 0.27 0.27 0.27 0.27 0.28 0.29 0.29 0.29 0.30 0.29 0.28 0.27 0.25 0.25
0.14 0.18 0.18 0.16 0.15 0.15 0.15 0.14 0.16 0.17 0.14 0.12 0.12 0.18 0.16 0.16 0.15 0.15 0.13 0.12 0.09 0.08 0.13 0.16 0.09 0.07 0.14 0.15 0.17 0.18 0.19 0.19 0.22 0.22 0.22 0.24 0.24 0.24 0.24 0.24 0.24 0.25 0.25 0.27 0.27 0.28 0.27 0.27 0.27 0.28 0.28 0.29 0.29 0.30 0.30 0.30 0.30 0.29 0.30 0.29 0.30 0.30 0.30 0.30 0.30 0.30 0.29 0.28 0.28 0.28 0.28 0.28 0.28 0.28 0.29 0.30 0.31 0.30 0.30 0.29 0.27 0.26 0.26 0.25 0.24 0.23
0.18 0.18 0.17 0.17 0.16 0.15 0.14 0.13 0.17 0.17 0.14 0.11 0.18 0.18 0.17 0.15 0.13 0.13 0.13 0.12 0.11 0.14 0.15 0.16 0.14 0.10 0.10 0.15 0.19 0.19 0.18 0.19 0.20 0.22 0.23 0.24 0.24 0.24 0.23 0.24 0.25 0.26 0.27 0.27 0.27 0.28 0.29 0.28 0.28 0.28 0.29 0.29 0.30 0.31 0.31 0.31 0.32 0.31 0.32 0.32 0.33 0.33 0.33 0.33 0.33 0.32 0.32 0.30 0.30 0.30 0.29 0.30 0.29 0.29 0.29 0.29 0.29 0.29 0.28 0.26 0.25 0.25 0.24 0.23 0.23 0.22
0.20 0.17 0.17 0.16 0.16 0.15 0.13 0.15 0.17 0.18 0.13 0.13 0.17 0.18 0.15 0.15 0.14 0.14 0.13 0.12 0.13 0.12 0.09 0.14 0.17 0.12 0.12 0.15 0.19 0.19 0.17 0.18 0.20 0.21 0.22 0.23 0.24 0.24 0.25 0.26 0.26 0.27 0.28 0.28 0.28 0.27 0.28 0.28 0.29 0.30 0.29 0.31 0.32 0.32 0.32 0.33 0.33 0.33 0.35 0.35 0.35 0.35 0.35 0.35 0.35 0.34 0.34 0.34 0.33 0.32 0.31 0.30 0.30 0.29 0.28 0.28 0.27 0.26 0.25 0.24 0.24 0.23 0.22 0.22 0.21 0.20
0.21 0.19 0.20 0.19 0.16 0.13 0.16 0.17 0.18 0.17 0.13 0.18 0.19 0.18 0.17 0.17 0.16 0.15 0.14 0.14 0.14 0.12 0.09 0.12 0.16 0.11 0.11 0.16 0.16 0.19 0.18 0.19 0.20 0.21 0.22 0.23 0.24 0.25 0.26 0.27 0.28 0.28 0.29 0.29 0.29 0.28 0.29 0.29 0.30 0.31 0.32 0.32 0.32 0.33 0.34 0.35 0.35 0.35 0.36 0.36 0.36 0.35 0.35 0.35 0.35 0.35 0.35 0.35 0.35 0.33 0.32 0.30 0.28 0.27 0.26 0.25 0.23 0.23 0.23 0.22 0.21 0.21 0.20 0.20 0.19 0.19
0.22 0.24 0.25 0.18 0.16 0.17 0.17 0.18 0.18 0.17 0.17 0.20 0.17 0.15 0.15 0.15 0.15 0.17 0.16 0.15 0.13 0.09 0.10 0.14 0.17 0.14 0.10 0.14 0.16 0.16 0.18 0.20 0.21 0.22 0.24 0.25 0.25 0.26 0.27 0.28 0.28 0.28 0.28 0.27 0.27 0.28 0.28 0.30 0.30 0.30 0.30 0.30 0.32 0.34 0.36 0.37 0.37 0.37 0.37 0.36 0.36 0.36 0.37 0.37 0.36 0.36 0.35 0.34 0.33 0.31 0.29 0.27 0.26 0.25 0.24 0.22 0.21 0.20 0.19 0.18 0.18 0.18 0.18 0.18 0.17 0.17
0.20 0.20 0.19 0.21 0.24 0.22 0.20 0.17 0.20 0.21 0.20 0.17 0.15 0.13 0.12 0.12 0.15 0.14 0.13 0.14 0.08 0.07 0.12 0.15 0.16 0.16 0.10 0.13 0.19 0.22 0.23 0.23 0.23 0.22 0.23 0.24 0.25 0.26 0.27 0.28 0.28 0.28 0.27 0.27 0.27 0.27 0.29 0.29 0.30 0.31 0.30 0.30 0.31 0.34 0.37 0.38 0.38 0.38 0.38 0.37 0.36 0.36 0.36 0.36 0.36 0.34 0.32 0.30 0.29 0.28 0.27 0.25 0.24 0.23 0.22 0.21 0.20 0.20 0.19 0.18 0.17 0.17 0.17 0.17 0.17 0.17
0.13 0.17 0.21 0.22 0.24 0.19 0.18 0.15 0.17 0.18 0.19 0.16 0.14 0.12 0.08 0.07 0.08 0.06 0.10 0.07 0.08 0.08 0.12 0.15 0.16 0.12 0.13 0.16 0.20 0.22 0.23 0.24 0.25 0.25 0.25 0.25 0.26 0.27 0.27 0.28 0.28 0.27 0.27 0.28 0.28 0.29 0.30 0.30 0.31 0.31 0.31 0.31 0.31 0.34 0.38 0.38 0.37 0.37 0.36 0.36 0.35 0.35 0.35 0.33 0.32 0.29 0.28 0.27 0.26 0.25 0.24 0.24 0.24 0.23 0.22 0.21 0.20 0.21 0.20 0.19 0.19 0.18 0.18 0.17 0.17 0.17
0.12 0.18 0.20 0.20 0.20 0.22 0.18 0.11 0.11 0.12 0.14 0.12 0.11 0.10 0.09 0.06 0.06 0.05 0.07 0.09 0.09 0.12 0.14 0.13 0.15 0.11 0.15 0.19 0.23 0.23 0.25 0.26 0.26 0.27 0.27 0.27 0.27 0.27 0.27 0.28 0.28 0.27 0.28 0.30 0.30 0.31 0.32 0.32 0.31 0.31 0.31 0.32 0.33 0.37 0.36 0.36 0.36 0.35 0.34 0.33 0.31 0.29 0.29 0.28 0.27 0.26 0.25 0.25 0.25 0.25 0.24 0.24 0.24 0.23 0.23 0.22 0.21 0.22 0.22 0.22 0.21 0.20 0.20 0.19 0.19 0.18
0.07 0.07 0.16 0.17 0.13 0.19 0.17 0.15 0.14 0.12 0.13 0.12 0.15 0.14 0.10 0.09 0.07 0.06 0.07 0.06 0.07 0.09 0.12 0.16 0.13 0.12 0.13 0.17 0.25 0.25 0.27 0.28 0.28 0.28 0.28 0.28 0.28 0.28 0.29 0.29 0.29 0.29 0.30 0.31 0.31 0.32 0.32 0.32 0.31 0.31 0.32 0.33 0.35 0.35 0.35 0.34 0.32 0.31 0.29 0.29 0.28 0.27 0.26 0.26 0.25 0.25 0.24 0.24 0.25 0.25 0.25 0.25 0.25 0.25 0.24 0.24 0.24 0.23 0.23 0.23 0.23 0.22 0.22 0.21 0.20 0.19
0.10 0.09 0.17 0.19 0.16 0.17 0.16 0.19 0.18 0.15 0.12 0.15 0.16 0.15 0.12 0.11 0.15 0.09 0.11 0.10 0.10 0.10 0.11 0.13 0.13 0.17 0.17 0.25 0.26 0.27 0.27 0.27 0.27 0.26 0.26 0.27 0.28 0.29 0.29 0.30 0.30 0.30 0.31 0.32 0.32 0.32 0.31 0.31 0.32 0.32 0.33 0.34 0.33 0.32 0.31 0.29 0.29 0.28 0.28 0.28 0.27 0.26 0.25 0.25 0.25 0.25 0.25 0.25 0.25 0.24 0.23 0.24 0.25 0.25 0.25 0.25 0.25 0.24 0.23 0.22 0.21 0.21 0.22 0.22 0.21 0.20
0.09 0.08 0.16 0.14 0.17 0.17 0.17 0.18 0.17 0.18 0.09 0.13 0.14 0.11 0.14 0.18 0.16 0.13 0.13 0.15 0.14 0.13 0.10 0.16 0.16 0.19 0.24 0.24 0.25 0.25 0.25 0.25 0.26 0.27 0.27 0.28 0.29 0.30 0.29 0.30 0.30 0.31 0.32 0.33 0.32 0.31 0.30 0.32 0.32 0.32 0.31 0.30 0.29 0.28 0.27 0.27 0.27 0.26 0.25 0.25 0.25 0.25 0.25 0.25 0.26 0.25 0.25 0.25 0.25 0.25 0.25 0.25 0.24 0.24 0.23 0.22 0.22 0.22 0.22 0.22 0.22 0.22 0.22 0.22 0.22 0.21
0.09 0.08 0.12 0.14 0.13 0.19 0.19 0.18 0.18 0.20 0.19 0.16 0.12 0.15 0.19 0.21 0.19 0.14 0.10 0.12 0.12 0.09 0.10 0.14 0.13 0.15 0.15 0.14 0.24 0.24 0.25 0.26 0.28 0.28 0.29 0.29 0.30 0.29 0.30 0.31 0.31 0.32 0.33 0.32 0.31 0.30 0.31 0.31 0.29 0.29 0.28 0.27 0.26 0.26 0.25 0.25 0.25 0.25 0.25 0.25 0.25 0.25 0.25 0.26 0.26 0.26 0.27 0.27 0.27 0.27 0.27 0.27 0.26 0.25 0.25 0.24 0.24 0.24 0.23 0.22 0.22 0.21 0.21 0.22 0.23 0.22
0.14 0.08 0.12 0.14 0.15 0.17 0.19 0.19 0.17 0.21 0.23 0.18 0.16 0.22 0.15 0.11 0.11 0.16 0.13 0.09 0.09 0.08 0.09 0.12 0.15 0.16 0.17 0.18 0.23 0.24 0.25 0.26 0.27 0.28 0.28 0.28 0.29 0.29 0.30 0.30 0.31 0.32 0.31 0.29 0.27 0.29 0.28 0.27 0.26 0.25 0.25 0.25 0.25 0.24 0.24 0.24 0.24 0.24 0.24 0.25 0.25 0.25 0.26 0.26 0.27 0.28 0.28 0.27 0.27 0.27 0.26 0.26 0.27 0.26 0.25 0.25 0.25 0.25 0.23 0.22 0.21 0.20 0.21 0.22 0.23 0.23
0.15 0.08 0.10 0.15 0.15 0.16 0.17 0.17 0.12 0.16 0.21 0.22 0.22 0.19 0.21 0.17 0.14 0.12 0.14 0.13 0.13 0.09 0.10 0.11 0.15 0.15 0.20 0.22 0.24 0.24 0.26 0.26 0.27 0.27 0.27 0.28 0.28 0.29 0.29 0.28 0.28 0.28 0.27 0.26 0.27 0.26 0.25 0.24 0.24 0.24 0.24 0.24 0.24 0.24 0.24 0.24 0.24 0.22 0.22 0.23 0.23 0.24 0.24 0.25 0.25 0.24 0.23 0.24 0.24 0.24 0.24 0.24 0.23 0.24 0.25 0.26 0.26 0.25 0.23 0.22 0.20 0.19 0.19 0.21 0.22 0.21
0.11 0.15 0.08 0.13 0.17 0.17 0.12 0.17 0.15 0.16 0.15 0.16 0.16 0.16 0.17 0.17 0.19 0.17 0.17 0.14 0.13 0.12 0.13 0.13 0.14 0.17 0.21 0.25 0.26 0.26 0.26 0.27 0.27 0.27 0.27 0.27 0.27 0.27 0.27 0.26 0.26 0.25 0.25 0.25 0.25 0.24 0.24 0.24 0.24 0.24 0.24 0.24 0.24 0.24 0.23 0.22 0.19 0.19 0.20 0.20 0.20 0.20 0.20 0.20 0.20 0.19 0.18 0.18 0.19 0.20 0.20 0.21 0.22 0.22 0.23 0.24 0.25 0.24 0.23 0.22 0.21 0.20 0.19 0.22 0.22 0.22
0.12 0.14 0.10 0.12 0.13 0.13 0.14 0.19 0.19 0.18 0.18 0.16 0.15 0.14 0.15 0.14 0.13 0.12 0.12 0.20 0.18 0.16 0.15 0.15 0.15 0.19 0.24 0.28 0.27 0.27 0.28 0.28 0.29 0.27 0.26 0.25 0.25 0.25 0.25 0.25 0.25 0.24 0.24 0.24 0.24 0.24 0.23 0.22 0.22 0.23 0.23 0.23 0.21 0.20 0.18 0.17 0.17 0.18 0.18 0.18 0.17 0.17 0.17 0.17 0.17 0.15 0.16 0.17 0.17 0.18 0.19 0.20 0.21 0.22 0.22 0.21 0.21 0.23 0.23 0.22 0.22 0.21 0.20 0.19 0.22 0.23
0.18 0.16 0.14 0.12 0.13 0.13 0.15 0.19 0.21 0.20 0.20 0.19 0.18 0.16 0.19 0.19 0.19 0.16 0.13 0.16 0.19 0.20 0.21 0.20 0.17 0.19 0.27 0.28 0.28 0.28 0.28 0.27 0.26 0.25 0.24 0.24 0.24 0.24 0.25 0.24 0.23 0.23 0.23 0.24 0.23 0.22 0.21 0.21 0.21 0.20 0.20 0.19 0.17 0.17 0.15 0.15 0.15 0.15 0.14 0.13 0.13 0.15 0.17 0.17 0.17 0.18 0.18 0.18 0.17 0.17 0.19 0.20 0.21 0.21 0.21 0.21 0.20 0.20 0.20 0.19 0.19 0.19 0.18 0.18 0.20 0.24
0.20 0.14 0.12 0.12 0.14 0.15 0.17 0.19 0.19 0.21 0.21 0.19 0.20 0.21 0.20 0.19 0.20 0.19 0.19 0.21 0.19 0.20 0.19 0.19 0.17 0.20 0.26 0.28 0.27 0.26 0.26 0.25 0.24 0.24 0.23 0.23 0.23 0.23 0.22 0.19 0.20 0.22 0.23 0.22 0.21 0.20 0.20 0.19 0.19 0.17 0.17 0.16 0.15 0.13 0.12 0.12 0.11 0.11 0.12 0.14 0.16 0.17 0.16 0.16 0.15 0.14 0.13 0.13 0.13 0.15 0.16 0.16 0.17 0.18 0.18 0.17 0.17 0.16 0.16 0.16 0.16 0.16 0.17 0.20 0.21 0.21
0.13 0.16 0.13 0.09 0.08 0.09 0.13 0.16 0.18 0.22 0.21 0.19 0.19 0.22 0.24 0.24 0.24 0.25 0.24 0.25 0.20 0.21 0.21 0.19 0.15 0.18 0.24 0.25 0.24 0.23 0.23 0.22 0.22 0.22 0.22 0.20 0.20 0.20 0.20 0.18 0.21 0.22 0.21 0.19 0.19 0.18 0.18 0.17 0.15 0.15 0.14 0.13 0.11 0.11 0.10 0.10 0.12 0.13 0.15 0.16 0.15 0.13 0.13 0.12 0.11 0.10 0.09 0.09 0.09 0.10 0.11 0.12 0.11 0.11 0.11 0.11 0.11 0.11 0.11 0.13 0.16 0.19 0.19 0.20 0.20 0.20
0.14 0.13 0.11 0.08 0.07 0.07 0.08 0.10 0.12 0.15 0.18 0.21 0.24 0.24 0.25 0.25 0.24 0.23 0.20 0.21 0.18 0.20 0.20 0.16 0.14 0.19 0.21 0.21 0.20 0.20 0.20 0.19 0.20 0.19 0.19 0.20 0.20 0.20 0.18 0.16 0.19 0.18 0.17 0.17 0.16 0.15 0.14 0.14 0.13 0.13 0.12 0.11 0.10 0.10 0.11 0.12 0.12 0.13 0.12 0.10 0.10 0.09 0.09 0.09 0.09 0.09 0.09 0.09 0.10 0.11 0.11 0.11 0.10 0.10 0.11 0.12 0.12 0.13 0.15 0.16 0.17 0.17 0.17 0.18 0.18 0.19
0.14 0.15 0.15 0.15 0.14 0.14 0.15 0.17 0.22 0.23 0.21 0.20 0.23 0.24 0.25 0.26 0.26 0.24 0.23 0.19 0.15 0.16 0.13 0.14 0.15 0.13 0.14 0.16 0.16 0.17 0.17 0.17 0.17 0.17 0.18 0.19 0.19 0.17 0.15 0.16 0.17 0.16 0.15 0.14 0.14 0.14 0.13 0.12 0.12 0.11 0.10 0.10 0.10 0.10 0.11 0.10 0.09 0.09 0.09 0.09 0.10 0.09 0.09 0.09 0.09 0.08 0.08 0.08 0.09 0.09 0.09 0.10 0.09 0.09 0.10 0.12 0.13 0.13 0.13 0.13 0.14 0.15 0.16 0.17 0.17 0.18
0.17 0.16 0.18 0.19 0.19 0.20 0.21 0.21 0.23 0.24 0.22 0.24 0.23 0.24 0.25 0.24 0.24 0.21 0.16 0.13 0.16 0.13 0.09 0.16 0.14 0.12 0.13 0.15 0.16 0.17 0.17 0.17 0.18 0.18 0.18 0.18 0.16 0.14 0.15 0.16 0.15 0.14 0.14 0.13 0.13 0.12 0.11 0.11 0.10 0.09 0.09 0.09 0.09 0.09 0.09 0.08 0.08 0.08 0.08 0.08 0.08 0.08 0.08 0.08 0.08 0.07 0.07 0.08 0.09 0.09 0.09 0.08 0.08 0.07 0.07 0.08 0.11 0.12 0.11 0.13 0.15 0.15 0.15 0.16 0.16 0.17
0.19 0.17 0.21 0.20 0.20 0.22 0.22 0.24 0.26 0.25 0.24 0.24 0.23 0.21 0.19 0.20 0.18 0.15 0.14 0.14 0.14 0.11 0.10 0.12 0.14 0.13 0.15 0.16 0.17 0.18 0.17 0.17 0.17 0.17 0.18 0.17 0.14 0.14 0.14 0.13 0.13 0.13 0.12 0.12 0.11 0.11 0.10 0.09 0.09 0.09 0.09 0.09 0.09 0.08 0.08 0.08 0.07 0.08 0.07 0.07 0.07 0.08 0.08 0.08 0.07 0.07 0.07 0.08 0.09 0.09 0.08 0.08 0.07 0.06 0.06 0.08 0.11 0.11 0.11 0.10 0.10 0.11 0.12 0.13 0.14 0.16
0.20 0.18 0.21 0.22 0.21 0.22 0.24 0.25 0.26 0.24 0.23 0.22 0.19 0.17 0.18 0.17 0.15 0.15 0.14 0.15 0.14 0.14 0.15 0.15 0.15 0.15 0.17 0.17 0.17 0.17 0.17 0.17 0.17 0.18 0.17 0.14 0.11 0.12 0.12 0.12 0.11 0.11 0.11 0.10 0.09 0.09 0.09 0.09 0.09 0.09 0.09 0.08 0.08 0.08 0.07 0.07 0.07 0.07 0.07 0.07 0.07 0.08 0.08 0.08 0.07 0.07 0.08 0.09 0.09 0.09 0.08 0.07 0.06 0.06 0.06 0.08 0.10 0.10 0.10 0.09 0.09 0.09 0.09 0.10 0.12 0.13
0.20 0.18 0.24 0.23 0.22 0.22 0.24 0.25 0.24 0.22 0.19 0.16 0.16 0.16 0.16 0.16 0.15 0.15 0.15 0.16 0.16 0.15 0.15 0.15 0.15 0.14 0.17 0.17 0.16 0.16 0.16 0.17 0.17 0.16 0.13 0.10 0.11 0.12 0.11 0.11 0.11 0.10 0.10 0.09 0.08 0.08 0.08 0.09 0.09 0.09 0.08 0.08 0.08 0.07 0.07 0.07 0.07 0.07 0.07 0.07 0.08 0.08 0.08 0.08 0.07 0.08 0.09 0.09 0.08 0.07 0.06 0.06 0.06 0.07 0.07 0.09 0.10 0.10 0.09 0.09 0.09 0.09 0.10 0.10 0.10 0.11
0.24 0.22 0.25 0.24 0.20 0.20 0.22 0.21 0.19 0.18 0.17 0.15 0.14 0.15 0.14 0.14 0.14 0.15 0.14 0.16 0.15 0.14 0.15 0.14 0.12 0.12 0.14 0.15 0.15 0.15 0.15 0.15 0.14 0.13 0.10 0.09 0.12 0.12 0.11 0.11 0.10 0.09 0.08 0.08 0.08 0.08 0.08 0.09 0.09 0.08 0.08 0.08 0.07 0.07 0.07 0.07 0.07 0.07 0.07 0.08 0.08 0.08 0.08 0.07 0.08 0.09 0.08 0.08 0.07 0.06 0.06 0.06 0.06 0.08 0.09 0.10 0.10 0.10 0.10 0.09 0.09 0.09 0.09 0.10 0.10 0.10
0.25 0.24 0.22 0.22 0.18 0.17 0.18 0.18 0.16 0.14 0.14 0.12 0.13 0.13 0.14 0.15 0.16 0.17 0.18 0.19 0.17 0.17 0.13 0.11 0.11 0.14 0.15 0.15 0.14 0.13 0.13 0.13 0.12 0.11 0.09 0.10 0.11 0.11 0.10 0.10 0.08 0.09 0.09 0.08 0.08 0.08 0.09 0.09 0.08 0.08 0.08 0.07 0.07 0.07 0.07 0.07 0.07 0.07 0.08 0.07 0.07 0.07 0.07 0.07 0.08 0.07 0.07 0.06 0.06 0.06 0.06 0.06 0.07 0.08 0.09 0.09 0.09 0.09 0.09 0.10 0.10 0.10 0.10 0.10 0.11 0.12
0.26 0.24 0.21 0.23 0.15 0.13 0.15 0.14 0.14 0.11 0.08 0.09 0.14 0.17 0.17 0.16 0.17 0.15 0.15 0.16 0.17 0.16 0.14 0.15 0.15 0.15 0.16 0.15 0.13 0.11 0.10 0.10 0.11 0.10 0.10 0.11 0.10 0.10 0.09 0.09 0.09 0.09 0.08 0.08 0.08 0.09 0.09 0.08 0.08 0.08 0.08 0.07 0.07 0.07 0.07 0.07 0.07 0.07 0.07 0.07 0.07 0.07 0.07 0.07 0.07 0.07 0.06 0.06 0.06 0.06 0.06 0.06 0.07 0.08 0.08 0.08 0.08 0.08 0.08 0.08 0.08 0.08 0.09 0.10 0.11 0.10
0.23 0.23 0.20 0.19 0.14 0.11 0.14 0.12 0.09 0.07 0.09 0.14 0.18 0.19 0.20 0.20 0.19 0.17 0.17 0.17 0.16 0.16 0.15 0.15 0.15 0.15 0.14 0.14 0.12 0.11 0.10 0.10 0.10 0.09 0.09 0.11 0.10 0.09 0.09 0.09 0.09 0.08 0.07 0.08 0.08 0.08 0.08 0.08 0.07 0.07 0.07 0.07 0.07 0.07 0.07 0.07 0.07 0.07 0.07 0.07 0.07 0.07 0.07 0.07 0.06 0.06 0.06 0.06 0.06 0.06 0.06 0.06 0.07 0.07 0.07 0.07 0.06 0.06 0.06 0.06 0.07 0.07 0.08 0.09 0.09 0.09
0.20 0.19 0.17 0.14 0.15 0.14 0.11 0.09 0.06 0.07 0.13 0.16 0.18 0.20 0.21 0.21 0.19 0.17 0.14 0.15 0.15 0.15 0.15 0.14 0.14 0.14 0.13 0.12 0.11 0.11 0.09 0.09 0.08 0.09 0.09 0.09 0.10 0.09 0.08 0.08 0.07 0.07 0.07 0.08 0.08 0.08 0.07 0.07 0.07 0.07 0.07 0.07 0.07 0.07 0.07 0.07 0.07 0.07 0.07 0.07 0.07 0.07 0.07 0.06 0.06 0.06 0.06 0.06 0.06 0.06 0.06 0.07 0.06 0.06 0.06 0.05 0.05 0.05 0.06 0.06 0.07 0.08 0.08 0.08 0.09 0.09
0.21 0.18 0.16 0.12 0.16 0.09 0.10 0.09 0.09 0.13 0.14 0.16 0.16 0.18 0.18 0.15 0.15 0.14 0.10 0.11 0.15 0.15 0.15 0.14 0.14 0.13 0.11 0.11 0.10 0.10 0.09 0.07 0.07 0.07 0.10 0.09 0.09 0.08 0.07 0.07 0.08 0.08 0.08 0.08 0.08 0.07 0.07 0.07 0.07 0.07 0.07 0.07 0.07 0.07 0.07 0.07 0.07 0.07 0.06 0.06 0.07 0.06 0.06 0.06 0.06 0.06 0.06 0.06 0.06 0.06 0.06 0.06 0.05 0.05 0.05 0.05 0.06 0.06 0.07 0.07 0.07 0.06 0.07 0.07 0.08 0.09
0.21 0.15 0.15 0.12 0.11 0.12 0.09 0.08 0.09 0.10 0.09 0.12 0.16 0.19 0.20 0.20 0.18 0.16 0.13 0.10 0.15 0.16 0.16 0.14 0.11 0.11 0.10 0.10 0.09 0.09 0.08 0.06 0.04 0.05 0.07 0.08 0.08 0.07 0.07 0.08 0.08 0.08 0.08 0.08 0.08 0.07 0.07 0.08 0.08 0.07 0.07 0.07 0.07 0.07 0.07 0.07 0.07 0.07 0.06 0.06 0.06 0.06 0.06 0.06 0.06 0.06 0.06 0.06 0.06 0.06 0.05 0.05 0.05 0.05 0.06 0.06 0.06 0.06 0.06 0.06 0.06 0.06 0.07 0.07 0.07 0.07
0.18 0.17 0.15 0.12 0.10 0.10 0.10 0.09 0.09 0.08 0.09 0.14 0.16 0.17 0.18 0.19 0.16 0.14 0.11 0.07 0.15 0.15 0.13 0.12 0.11 0.10 0.10 0.09 0.08 0.08 0.07 0.05 0.04 0.05 0.07 0.07 0.07 0.07 0.07 0.07 0.07 0.08 0.08 0.08 0.07 0.07 0.07 0.07 0.07 0.07 0.07 0.07 0.07 0.07 0.07 0.07 0.07 0.06 0.06 0.06 0.06 0.06 0.06 0.06 0.06 0.06 0.06 0.06 0.06 0.06 0.06 0.06 0.06 0.06 0.06 0.06 0.06 0.06 0.06 0.06 0.06 0.06 0.06 0.06 0.06 0.06
0.13 0.13 0.13 0.10 0.10 0.11 0.11 0.09 0.08 0.10 0.10 0.14 0.16 0.16 0.17 0.16 0.15 0.11 0.06 0.06 0.13 0.14 0.13 0.12 0.11 0.10 0.09 0.09 0.08 0.07 0.06 0.05 0.05 0.06 0.07 0.07 0.07 0.07 0.08 0.07 0.07 0.08 0.07 0.07 0.07 0.08 0.07 0.07 0.07 0.07 0.07 0.07 0.07 0.07 0.07 0.07 0.06 0.06 0.06 0.06 0.06 0.06 0.06 0.06 0.06 0.06 0.06 0.06 0.06 0.06 0.06 0.06 0.06 0.05 0.05 0.06 0.06 0.06 0.06 0.06 0.06 0.06 0.06 0.06 0.07 0.07
0.11 0.12 0.12 0.10 0.11 0.11 0.11 0.09 0.09 0.11 0.15 0.17 0.16 0.15 0.16 0.15 0.12 0.07 0.05 0.09 0.12 0.13 0.13 0.12 0.10 0.09 0.09 0.08 0.08 0.06 0.07 0.07 0.07 0.07 0.07 0.07 0.07 0.07 0.07 0.07 0.07 0.08 0.07 0.07 0.07 0.07 0.07 0.07 0.07 0.07 0.07 0.07 0.07 0.07 0.07 0.07 0.06 0.06 0.06 0.06 0.06 0.06 0.06 0.06 0.06 0.06 0.06 0.06 0.06 0.06 0.06 0.06 0.06 0.06 0.06 0.06 0.06 0.06 0.06 0.07 0.07 0.07 0.07 0.07 0.07 0.07
0.10 0.12 0.12 0.12 0.11 0.10 0.11 0.08 0.08 0.10 0.15 0.16 0.16 0.16 0.16 0.11 0.06 0.06 0.11 0.14 0.13 0.12 0.12 0.11 0.09 0.09 0.09 0.08 0.08 0.07 0.08 0.08 0.08 0.07 0.07 0.07 0.07 0.07 0.07 0.07 0.07 0.07 0.08 0.08 0.08 0.07 0.07 0.07 0.06 0.06 0.06 0.07 0.07 0.07 0.07 0.06 0.06 0.06 0.06 0.06 0.05 0.06 0.06 0.06 0.06 0.06 0.06 0.06 0.06 0.06 0.06 0.06 0.06 0.06 0.06 0.06 0.06 0.06 0.07 0.07 0.07 0.07 0.07 0.07 0.07 0.07
0.11 0.11 0.10 0.11 0.12 0.12 0.10 0.08 0.07 0.05 0.11 0.16 0.15 0.14 0.15 0.09 0.10 0.12 0.13 0.13 0.13 0.11 0.09 0.09 0.09 0.09 0.09 0.08 0.08 0.08 0.08 0.07 0.07 0.07 0.07 0.07 0.07 0.07 0.07 0.07 0.07 0.07 0.07 0.07 0.07 0.07 0.07 0.06 0.06 0.06 0.06 0.06 0.07 0.07 0.06 0.06 0.06 0.06 0.06 0.05 0.06 0.06 0.06 0.06 0.06 0.06 0.06 0.06 0.06 0.06 0.06 0.06 0.06 0.06 0.07 0.07 0.07 0.07 0.07 0.07 0.07 0.07 0.07 0.07 0.07 0.07
0.15 0.11 0.11 0.12 0.14 0.09 0.08 0.07 0.06 0.10 0.15 0.17 0.15 0.10 0.12 0.13 0.14 0.13 0.12 0.09 0.10 0.10 0.10 0.10 0.09 0.09 0.09 0.08 0.08 0.07 0.06 0.06 0.06 0.06 0.07 0.07 0.07 0.07 0.07 0.07 0.07 0.07 0.07 0.07 0.07 0.07 0.07 0.06 0.06 0.06 0.06 0.06 0.06 0.06 0.06 0.06 0.06 0.05 0.05 0.06 0.06 0.06 0.06 0.06 0.06 0.06 0.06 0.06 0.06 0.06 0.06 0.06 0.06 0.06 0.06 0.06 0.07 0.07 0.07 0.07 0.07 0.07 0.07 0.07 0.07 0.07
0.16 0.13 0.14 0.11 0.13 0.11 0.09 0.09 0.13 0.15 0.16 0.17 0.16 0.14 0.14 0.15 0.14 0.12 0.11 0.10 0.10 0.10 0.11 0.10 0.09 0.09 0.09 0.08 0.07 0.06 0.06 0.06 0.06 0.07 0.07 0.07 0.07 0.07 0.07 0.07 0.07 0.07 0.07 0.06 0.06 0.07 0.06 0.06 0.06 0.06 0.06 0.06 0.06 0.06 0.06 0.06 0.06 0.06 0.05 0.06 0.06 0.06 0.06 0.06 0.06 0.06 0.06 0.06 0.06 0.06 0.06 0.06 0.06 0.06 0.06 0.06 0.06 0.06 0.06 0.06 0.07 0.07 0.07 0.07 0.07 0.07
0.18 0.17 0.16 0.14 0.12 0.14 0.13 0.14 0.16 0.15 0.15 0.15 0.16 0.15 0.14 0.13 0.12 0.11 0.10 0.10 0.10 0.11 0.11 0.10 0.09 0.08 0.08 0.07 0.06 0.06 0.06 0.06 0.06 0.06 0.06 0.06 0.07 0.07 0.07 0.07 0.07 0.07 0.07 0.06 0.06 0.06 0.06 0.06 0.06 0.06 0.06 0.06 0.06 0.06 0.06 0.06 0.06 0.06 0.06 0.06 0.06 0.06 0.06 0.06 0.06 0.06 0.06 0.06 0.06 0.06 0.06 0.06 0.06 0.06 0.06 0.06 0.06 0.06 0.06 0.06 0.06 0.06 0.07 0.07 0.07 0.07
0.17 0.16 0.13 0.10 0.11 0.09 0.08 0.13 0.12 0.13 0.14 0.14 0.15 0.15 0.14 0.12 0.11 0.11 0.10 0.11 0.11 0.11 0.10 0.09 0.08 0.08 0.08 0.07 0.06 0.06 0.06 0.06 0.06 0.06 0.07 0.07 0.07 0.07 0.06 0.06 0.07 0.07 0.06 0.06 0.06 0.06 0.06 0.06 0.06 0.05 0.05 0.05 0.06 0.06 0.06 0.06 0.06 0.06 0.06 0.06 0.06 0.06 0.06 0.06 0.06 0.06 0.06 0.06 0.06 0.06 0.06 0.06 0.06 0.06 0.06 0.06 0.06 0.06 0.06 0.06 0.06 0.06 0.06 0.07 0.07 0.07
0.12 0.15 0.10 0.11 0.10 0.09 0.09 0.12 0.14 0.15 0.14 0.15 0.14 0.12 0.10 0.11 0.11 0.11 0.12 0.12 0.11 0.10 0.09 0.09 0.08 0.08 0.07 0.06 0.06 0.06 0.06 0.06 0.06 0.06 0.06 0.07 0.07 0.06 0.06 0.06 0.06 0.06 0.06 0.06 0.06 0.06 0.06 0.06 0.05 0.05 0.05 0.05 0.06 0.06 0.06 0.06 0.06 0.06 0.06 0.06 0.06 0.06 0.06 0.06 0.06 0.06 0.06 0.06 0.06 0.06 0.06 0.06 0.06 0.06 0.06 0.06 0.06 0.06 0.06 0.06 0.06 0.06 0.06 0.06 0.06 0.06
0.13 0.14 0.09 0.11 0.09 0.10 0.12 0.13 0.14 0.14 0.13 0.13 0.12 0.12 0.11 0.11 0.11 0.11 0.11 0.11 0.10 0.09 0.08 0.08 0.08 0.08 0.07 0.06 0.07 0.06 0.06 0.06 0.06 0.07 0.07 0.07 0.06 0.06 0.06 0.06 0.06 0.06 0.06 0.06 0.06 0.06 0.06 0.06 0.05 0.05 0.05 0.05 0.06 0.06 0.06 0.06 0.06 0.06 0.06 0.06 0.06 0.06 0.06 0.06 0.06 0.06 0.06 0.06 0.06 0.06 0.06 0.06 0.06 0.06 0.06 0.06 0.06 0.06 0.06 0.06 0.06 0.06 0.07 0.07 0.07 0.07
0.11 0.09 0.12 0.11 0.08 0.08 0.09 0.11 0.13 0.09 0.09 0.10 0.11 0.11 0.10 0.11 0.11 0.11 0.10 0.09 0.09 0.08 0.08 0.07 0.07 0.07 0.07 0.07 0.07 0.07 0.06 0.06 0.06 0.07 0.07 0.06 0.06 0.06 0.06 0.06 0.06 0.06 0.06 0.06 0.06 0.06 0.06 0.06 0.06 0.05 0.05 0.05 0.06 0.06 0.06 0.06 0.06 0.06 0.06 0.06 0.06 0.06 0.06 0.06 0.06 0.06 0.06 0.06 0.06 0.06 0.06 0.06 0.06 0.06 0.06 0.06 0.06 0.06 0.06 0.06 0.06 0.07 0.07 0.07 0.07 0.08
0.10 0.11 0.11 0.09 0.09 0.08 0.11 0.13 0.14 0.13 0.12 0.11 0.10 0.10 0.11 0.12 0.11 0.10 0.09 0.09 0.09 0.08 0.08 0.07 0.07 0.06 0.06 0.07 0.07 0.06 0.06 0.06 0.06 0.07 0.06 0.06 0.06 0.06 0.06 0.06 0.06 0.06 0.06 0.06 0.05 0.05 0.05 0.05 0.05 0.05 0.05 0.05 0.06 0.06 0.06 0.06 0.06 0.06 0.06 0.06 0.06 0.06 0.06 0.06 0.06 0.06 0.06 0.06 0.06 0.06 0.06 0.06 0.06 0.06 0.06 0.06 0.06 0.06 0.06 0.06 0.06 0.07 0.07 0.07 0.08 0.08
Wind_Speed
11 12 13 13 14 14 15 15 15 15 15 16 16 18 19 20 21 20 20 21 19 19 22 23 24 25 26 26 25 24 22 20 18 17 17 17 17 18 18 19 19 18 19 20 20 20 20 20 21 21 22 23 23 24 25 25 26 27 28 30 31 32 32 33 34 35 36 37 37 38 39 39 40 41 41 42 42 42 42 42 43 43 44 44 44 44
12 13 14 14 15 15 15 14 14 15 16 17 18 19 20 20 21 20 20 21 19 19 22 23 24 26 26 25 24 22 20 19 18 16 16 16 16 17 17 18 18 18 20 20 20 20 20 20 20 21 22 22 23 24 24 25 26 27 28 29 31 31 32 32 33 35 36 37 37 38 39 40 40 41 41 42 42 42 43 44 44 45 45 45 46 46
13 14 14 14 14 14 14 14 14 16 17 18 18 19 20 20 20 20 20 20 19 20 23 24 25 26 25 23 22 20 18 18 17 15 15 15 15 17 17 17 17 18 19 20 20 20 20 20 21 21 22 23 24 24 25 26 27 27 29 29 30 31 32 33 34 35 36 37 38 39 39 40 41 41 42 42 43 44 45 45 46 46 47 47 47 47
13 14 14 14 14 14 15 15 15 16 17 18 18 18 20 20 19 20 20 21 20 21 23 24 25 25 22 19 19 19 17 16 15 14 14 15 15 16 16 17 17 18 19 20 20 21 20 21 21 22 23 24 25 25 26 26 27 28 29 30 30 31 32 33 34 35 36 37 38 39 40 41 41 42 43 43 44 45 46 46 47 48 48 48 48 48
14 14 14 14 14 14 16 17 16 17 18 19 18 18 19 19 19 20 21 21 22 23 23 23 23 22 19 17 18 19 17 16 15 14 15 16 16 16 17 18 18 19 20 20 21 21 21 22 22 24 25 25 26 26 27 28 28 29 30 31 31 32 33 34 35 36 37 38 40 40 41 42 42 43 43 44 45 46 47 47 48 49 49 49 49 50
15 14 13 13 14 14 15 17 17 16 18 19 18 18 18 18 19 20 21 21 22 22 21 20 21 20 19 17 18 19 18 17 17 16 16 16 16 16 17 18 19 20 21 21 21 22 22 23 24 25 26 26 27 27 28 29 29 30 31 32 32 33 34 35 36 37 38 39 41 41 42 43 44 44 45 46 47 48 48 49 49 50 50 50 51 51
14 13 13 13 14 14 15 17 18 15 16 18 18 17 17 17 19 21 20 20 20 21 21 20 20 21 21 20 19 19 18 18 18 17 17 16 16 17 18 19 20 21 21 22 22 23 23 24 25 26 26 27 27 28 29 29 30 31 31 32 33 34 35 37 38 39 40 41 42 42 43 44 45 46 47 47 48 49 49 50 50 51 51 52 52 52
13 13 14 13 14 15 16 17 17 15 15 18 18 16 17 19 20 20 20 20 22 22 23 22 19 20 22 21 19 18 17 18 18 18 18 17 17 17 18 19 20 21 22 22 23 23 24 25 25 26 27 28 29 29 30 30 31 32 33 34 35 36 37 39 40 41 41 42 43 44 45 45 46 48 49 49 49 50 50 50 51 51 52 53 53 53
13 13 14 13 14 15 16 16 16 15 15 18 17 17 19 20 20 20 20 21 22 22 22 21 18 19 21 19 18 18 17 18 17 17 18 18 17 18 18 19 20 21 21 21 22 23 24 25 26 27 28 29 30 31 31 32 33 34 35 36 37 38 39 41 42 42 43 44 45 45 46 47 48 49 50 50 50 51 51 51 52 52 52 53 53 53
13 13 13 12 14 15 15 16 16 14 16 18 18 19 20 20 20 20 20 20 20 19 21 21 18 17 19 19 18 18 18 18 18 18 19 19 18 18 18 19 20 20 21 22 23 24 25 26 27 28 30 32 33 33 34 34 35 36 37 38 39 41 42 43 44 44 45 46 47 47 48 49 50 50 51 51 51 51 51 52 52 52 52 52 52 53
13 13 13 13 14 15 15 16 15 14 17 19 19 20 21 20 20 19 19 18 18 19 20 21 18 16 18 18 17 19 19 19 19 20 20 19 18 18 18 19 19 20 22 23 25 26 27 28 29 31 33 34 36 36 37 37 37 38 40 41 42 43 44 45 46 46 47 48 48 49 50 51 51 51 51 51 51 51 51 51 51 51 51 51 51 52
13 13 13 14 14 14 14 15 16 17 18 18 19 20 20 20 19 19 19 17 17 19 20 19 17 16 17 18 18 19 20 19 18 19 19 18 18 18 18 19 20 22 24 25 27 28 29 30 32 34 35 37 39 39 39 39 40 41 42 43 44 45 46 47 48 48 49 49 50 50 51 51 52 51 51 51 51 51 51 51 51 50 50 50 50 51
14 13 14 14 14 14 14 16 19 19 18 18 19 19 19 19 19 18 19 18 17 18 18 18 18 18 18 18 18 18 17 17 17 17 17 18 18 18 19 20 22 24 26 27 28 30 31 32 35 37 38 40 41 40 39 40 41 43 44 45 46 48 48 48 49 49 50 50 50 51 51 52 51 51 51 51 50 51 51 51 51 50 50 50 50 50
13 14 14 13 15 15 15 17 19 19 19 20 19 17 16 17 18 19 19 18 19 19 19 19 19 19 18 17 17 16 16 16 16 17 18 18 18 19 20 22 23 26 28 29 30 31 33 35 37 39 41 42 40 39 40 42 44 45 46 48 48 49 49 49 50 50 50 50 50 51 51 51 51 51 51 50 50 50 50 51 51 51 51 51 51 51
13 14 14 14 16 17 17 17 17 18 20 20 17 16 16 17 17 18 19 18 20 21 22 21 19 18 17 16 17 16 16 16 16 18 19 19 19 20 22 24 25 28 29 30 32 33 36 38 40 41 41 40 40 40 43 45 46 47 48 49 49 50 50 51 51 51 52 52 52 52 52 52 52 52 52 51 51 51 51 51 52 52 52 52 51 51
14 15 15 16 17 17 18 18 17 18 19 18 17 17 18 17 17 18 19 19 20 21 21 19 17 17 16 16 17 16 16 17 17 18 20 20 21 22 24 26 28 30 31 32 34 36 39 40 41 42 41 41 42 44 46 47 48 49 50 50 51 51 52 52 53 53 54 54 55 55 55 54 54 54 53 53 53 52 52 53 53 53 53 53 52 52
15 16 17 18 18 17 16 18 19 19 18 18 18 18 18 18 17 18 20 20 19 19 19 17 15 16 16 16 18 17 17 18 19 20 21 22 23 25 26 28 31 32 33 34 37 39 41 41 42 42 42 44 46 48 49 50 51 51 52 52 53 53 54 54 55 55 56 57 57 57 56 56 55 55 54 54 54 54 54 55 54 54 54 53 53 52
16 19 19 17 17 17 17 18 19 19 18 17 18 19 19 18 17 17 18 19 18 18 18 18 15 15 16 17 18 18 19 20 21 22 23 24 25 27 29 31 33 34 35 37 40 41 42 42 43 44 46 48 50 50 51 52 52 53 53 54 54 55 56 56 57 57 58 58 58 57 57 56 56 55 55 55 56 56 56 56 56 56 56 55 54 53
18 19 20 17 17 19 19 19 19 19 18 17 18 19 18 17 17 17 17 18 18 18 19 19 17 16 17 17 17 19 20 21 23 24 25 27 29 30 32 34 35 36 38 41 42 42 42 43 46 48 50 51 51 52 52 53 54 54 55 55 56 57 58 58 58 58 58 58 58 58 58 57 57 57 56 57 58 58 59 58 58 58 57 56 55 54
18 18 19 19 18 19 20 19 19 19 19 19 19 19 17 16 16 17 17 16 17 18 18 19 18 17 18 18 17 19 21 22 25 26 27 29 30 32 34 35 37 39 41 43 43 43 44 47 49 51 52 52 52 53 54 54 56 56 57 58 58 58 58 58 59 59 60 60 60 60 59 59 59 58 58 59 59 60 60 60 59 59 58 57 56 55
18 17 19 20 20 20 20 19 18 18 18 18 17 17 17 17 17 17 18 17 16 17 17 18 18 17 18 19 19 20 22 23 25 27 28 30 32 33 36 38 40 41 43 44 44 45 48 51 52 52 53 53 54 55 56 57 58 58 58 58 58 59 59 59 59 60 60 60 60 60 60 60 60 60 60 60 59 59 59 59 59 59 58 57 56 54
19 18 19 21 20 20 20 20 18 16 16 15 15 16 16 17 17 17 19 18 17 17 17 17 18 18 19 20 21 22 24 25 27 28 30 33 35 36 39 40 42 44 45 45 45 48 51 52 52 53 54 55 56 57 58 58 58 58 59 59 60 60 59 59 59 59 59 59 59 59 59 59 59 58 58 58 57 57 57 57 57 57 57 56 54 53
19 18 19 20 20 19 19 19 16 15 14 15 16 17 17 17 17 16 18 19 19 19 19 18 18 18 18 20 22 23 25 27 29 31 33 35 37 39 40 42 45 46 46 46 49 51 52 52 53 55 56 57 57 58 58 59 59 59 60 60 60 59 59 59 59 59 59 59 59 59 58 57 57 57 57 56 56 57 57 57 56 55 54 53 52 52
18 17 18 19 19 18 18 16 15 14 15 17 19 19 18 18 18 17 18 19 19 20 20 18 18 17 17 20 22 24 27 28 31 34 35 37 39 40 42 45 47 47 47 49 51 52 52 53 55 56 57 57 57 58 59 59 60 60 59 58 58 59 59 59 59 59 59 59 59 58 57 57 57 57 57 57 57 58 57 57 55 53 52 51 51 51
17 16 17 18 18 17 16 15 16 18 18 19 19 19 18 18 19 19 19 19 18 19 18 18 18 17 18 21 24 26 29 30 33 36 37 39 41 42 45 48 48 47 49 51 51 52 54 55 55 55 56 56 57 59 59 59 59 59 58 58 59 59 60 59 59 59 58 58 58 57 56 56 56 56 57 57 56 56 55 53 51 50 49 49 49 48
16 15 15 15 15 16 16 17 18 20 20 20 19 20 19 19 19 19 18 17 17 18 19 19 20 22 23 25 28 30 32 34 36 38 39 40 42 44 47 48 48 48 50 51 52 53 54 55 55 55 56 57 58 59 59 59 59 59 59 60 59 59 59 59 58 58 58 58 57 56 55 55 55 55 55 54 53 52 51 50 49 49 48 48 47 46
15 15 15 14 14 16 17 18 19 20 20 20 20 20 20 19 19 17 16 16 17 19 21 20 22 26 28 28 31 33 34 36 38 40 41 42 44 47 49 49 48 49 50 51 53 54 54 54 56 57 58 59 59 59 58 59 60 60 60 59 59 58 58 57 58 58 58 57 56 55 55 54 53 54 54 53 52 51 50 49 48 47 47 46 46 46
15 16 16 15 16 17 18 20 20 19 19 18 18 19 19 19 18 16 16 17 18 20 21 22 25 28 30 30 33 35 36 38 40 42 43 44 47 49 49 48 49 50 51 52 53 54 55 56 57 58 59 59 59 59 59 60 60 59 59 59 59 58 57 58 58 59 58 56 55 54 54 54 54 55 55 54 52 51 50 49 48 47 47 46 45 45
14 16 16 16 18 19 20 20 18 16 17 17 17 17 17 18 18 17 17 18 19 20 23 26 28 30 31 32 34 36 38 40 42 43 44 47 49 49 48 48 49 51 52 53 54 55 56 57 58 59 59 60 60 60 60 60 60 59 59 59 58 57 58 59 59 58 57 56 54 54 54 55 56 57 56 53 51 51 50 50 50 50 49 48 47 46
15 16 17 17 19 20 19 18 16 14 15 16 17 17 17 17 18 18 19 21 22 23 26 28 30 30 30 33 36 38 40 42 43 44 45 48 50 48 48 49 51 52 53 54 55 56 57 58 58 59 59 60 60 60 61 61 61 60 60 59 58 58 58 59 59 58 56 54 54 54 56 58 58 57 55 53 52 51 51 51 51 51 50 50 49 48
16 17 18 17 19 19 18 17 16 14 15 16 17 18 18 18 19 21 22 24 25 26 28 30 31 31 32 35 38 39 40 42 43 45 47 49 49 48 49 51 52 54 55 56 57 58 58 58 58 59 60 61 60 61 62 61 61 60 59 58 58 58 59 59 58 57 55 55 56 58 59 60 58 56 55 54 53 53 53 53 52 52 51 50 49 49
17 18 18 18 18 18 17 16 16 15 15 16 18 19 19 20 21 23 24 25 27 29 31 32 33 33 35 38 40 40 41 43 44 46 49 50 48 48 50 52 54 55 56 58 59 59 58 58 60 61 61 61 61 62 62 61 61 60 59 59 59 59 60 59 58 57 57 58 60 61 61 60 58 57 56 55 54 54 54 53 53 52 51 51 50 49
17 17 18 17 17 17 17 16 16 16 17 17 19 21 20 20 22 25 25 26 28 30 31 33 34 35 37 39 41 41 43 44 45 47 49 49 48 49 52 53 55 56 57 59 60 59 59 60 61 62 61 61 61 61 61 60 60 59 59 60 60 60 60 60 58 59 61 62 62 62 61 60 59 58 57 57 57 56 55 54 54 53 52 52 51 49
17 17 17 17 16 17 19 19 17 17 17 18 19 21 21 21 24 28 27 27 29 30 32 33 34 35 37 39 41 43 45 45 46 48 48 47 48 51 54 54 55 57 58 59 59 59 60 61 62 61 61 61 60 60 60 60 59 59 60 60 61 61 61 60 60 62 63 62 62 62 62 61 60 59 59 59 59 59 58 57 57 56 54 53 52 50
18 18 17 17 16 18 20 20 18 17 18 17 18 21 23 22 24 28 28 28 30 32 33 34 34 36 38 40 42 44 46 46 47 47 45 46 49 53 54 56 57 58 59 59 58 60 61 62 62 61 60 60 59 60 60 59 59 60 60 60 61 61 61 61 62 63 63 63 63 63 62 61 60 60 61 61 61 62 61 60 59 58 56 55 53 52
17 18 17 17 17 18 19 20 19 18 19 20 21 24 25 24 27 30 30 29 32 34 34 35 35 37 40 42 43 45 46 47 47 45 44 46 50 53 55 56 58 59 59 58 59 61 62 61 60 59 59 59 59 60 60 59 60 61 61 61 61 61 62 62 63 63 63 64 64 63 61 61 62 63 64 64 63 62 61 59 58 57 56 55 55 54
17 17 18 17 18 18 20 21 20 19 20 22 23 25 26 26 29 32 32 32 33 34 34 35 37 40 42 43 44 45 48 48 45 42 44 48 52 54 55 56 57 58 59 59 60 61 60 59 59 58 59 59 59 59 60 60 61 61 62 62 62 62 63 63 63 63 64 64 64 63 63 65 66 66 65 63 62 60 59 58 57 56 55 55 54 53
18 18 17 17 19 20 20 21 21 20 21 22 24 26 28 28 31 32 33 32 32 34 35 37 39 42 43 44 45 47 48 48 45 44 47 52 55 56 56 57 57 58 58 59 60 60 58 58 57 58 58 58 59 59 60 61 61 62 62 63 63 63 63 63 63 64 65 65 65 66 67 67 66 65 63 62 60 60 59 59 58 57 55 55 54 53
20 19 17 18 20 21 21 21 21 21 22 23 26 29 29 31 34 33 31 30 31 35 38 39 40 43 44 45 47 47 47 47 47 48 52 56 57 57 57 58 59 58 58 58 59 58 58 57 57 57 58 58 59 60 61 61 62 62 63 63 63 63 63 64 64 65 66 66 67 67 67 66 64 63 62 61 60 60 59 59 58 56 55 54 54 53
20 20 19 20 21 22 21 21 22 22 22 25 28 30 31 34 34 31 28 30 34 37 39 40 42 44 45 46 47 46 46 47 49 52 55 58 58 57 57 58 59 58 58 58 57 57 57 57 57 57 58 59 60 60 61 62 62 63 63 63 63 63 64 64 65 66 66 67 66 66 65 64 62 61 60 59 58 58 56 55 54 53 52 52 51 51
21 21 21 21 22 23 22 23 24 23 22 26 30 32 33 34 31 28 30 34 39 40 40 41 44 45 45 46 46 46 46 48 51 54 57 58 57 57 58 58 57 57 57 57 56 56 56 56 56 57 58 59 60 61 61 62 63 63 63 63 63 64 64 65 65 65 65 65 64 64 62 60 59 57 56 55 54 53 51 50 49 48 48 47 47 47
21 22 22 22 23 24 23 24 25 22 23 29 32 32 33 32 30 31 35 38 40 42 42 43 45 45 46 47 47 47 49 51 52 54 56 56 56 57 57 57 57 56 56 55 55 56 56 56 57 58 58 59 60 61 62 63 63 63 63 63 64 64 64 64 64 64 64 63 62 61 59 57 55 54 52 51 49 48 47 45 45 44 44 43 43 42
21 21 22 24 24 24 24 24 24 23 26 32 33 32 32 32 32 35 38 39 40 42 43 44 45 45 47 48 48 49 51 52 53 54 55 55 56 56 56 56 56 56 55 55 56 56 56 57 57 58 59 60 61 61 62 63 64 63 63 63 64 64 63 63 63 62 61 60 59 57 56 55 53 51 49 47 46 45 44 43 42 41 40 40 39 38
22 21 22 24 24 24 24 24 24 25 29 32 32 31 32 33 34 37 38 39 40 42 43 44 45 46 47 49 50 51 52 53 54 55 55 55 55 55 54 55 55 55 55 55 55 56 56 57 58 58 59 60 61 62 63 63 64 63 63 63 63 63 62 61 61 60 58 57 56 55 54 52 50 48 45 44 43 42 41 40 39 38 37 36 35 34
22 22 23 23 24 24 24 25 26 27 29 31 31 31 32 35 37 38 38 40 41 42 43 44 46 47 48 50 51 52 53 54 55 55 55 54 54 53 54 55 55 54 54 55 55 56 57 58 58 59 60 61 62 62 63 62 63 63 63 63 62 61 60 60 59 57 56 55 54 53 51 50 48 45 43 42 40 39 38 37 36 35 34 33 32 31
22 24 24 24 25 26 25 25 26 28 31 32 31 31 34 37 38 38 38 40 42 43 44 45 46 48 50 51 52 53 53 54 55 54 53 53 53 53 54 54 54 53 54 55 55 56 57 58 59 60 61 62 62 63 62 62 61 62 62 61 60 59 58 58 57 55 54 53 52 50 49 48 46 43 41 40 38 37 35 34 33 31 30 29 28 27
24 26 25 25 26 26 25 25 27 31 34 34 32 33 36 38 38 38 40 42 43 44 45 46 48 49 51 51 52 53 53 54 54 53 52 52 52 53 54 54 53 53 54 55 56 57 58 58 59 60 61 62 63 62 62 61 61 60 60 59 58 57 56 55 54 53 52 51 49 48 46 45 43 41 39 38 36 34 33 31 29 28 26 25 24 23
25 26 25 25 26 26 26 27 30 33 34 33 33 35 39 39 39 40 41 43 44 45 46 47 49 50 51 52 52 53 53 52 52 51 51 52 52 53 53 53 53 54 54 55 56 57 58 59 60 61 62 63 63 62 61 61 60 59 58 57 56 56 54 53 52 51 50 48 46 45 43 42 41 40 38 36 34 33 31 29 27 25 23 22 21 20
25 25 25 26 27 27 28 30 32 34 33 32 34 38 40 39 40 41 43 44 45 46 47 48 49 50 52 52 52 52 52 51 51 51 51 52 52 52 52 52 53 54 55 56 57 57 58 59 60 61 62 62 62 61 61 60 59 58 57 56 55 54 53 52 50 49 47 45 44 42 41 40 39 38 37 35 33 31 29 27 25 23 21 19 18 17
25 25 25 27 27 28 29 31 33 34 34 35 38 41 40 40 41 43 43 44 46 47 48 49 50 51 51 51 51 51 50 50 50 50 51 51 52 52 52 53 53 54 55 56 57 58 58 59 60 61 61 61 60 60 59 58 57 56 55 54 53 52 51 50 48 46 45 43 41 40 39 38 37 36 35 34 32 30 28 26 24 22 20 18 16 16
25 25 27 28 28 29 31 33 34 35 35 37 40 41 41 41 42 43 44 45 47 48 49 50 51 51 51 50 50 49 49 49 50 50 51 51 51 52 52 53 54 55 56 57 57 58 59 59 60 61 60 60 59 59 58 57 56 55 53 52 51 51 49 48 46 44 42 41 39 39 38 37 36 35 34 32 31 29 27 25 23 21 20 17 16 15
Wind_Direction
273 276 277 276 275 276 278 277 274 279 283 284 286 286 285 286 288 288 287 289 290 290 289 287 288 292 294 296 298 299 300 298 296 298 300 302 304 304 304 304 302 301 301 303 305 303 300 298 296 295 295 295 295 294 293 292 291 291 291 291 291 291 291 290 290 290 290 290 290 289 288 288 288 289 289 289 289 288 288 288 288 288 288 288 288 288
277 277 276 273 273 277 281 282 283 285 287 289 288 288 289 288 288 290 290 290 292 291 290 292 292 293 296 297 300 301 300 299 298 299 302 305 307 306 308 308 305 302 303 306 307 305 303 300 299 299 299 300 299 298 297 296 295 295 295 295 295 294 294 292 292 292 292 291 291 290 290 290 290 290 290 290 290 289 288 288 288 288 288 288 287 287
282 278 277 277 281 286 286 286 288 287 288 290 290 289 291 290 290 293 295 294 294 291 292 296 297 296 299 301 302 302 300 300 301 302 304 306 308 308 308 307 305 304 305 306 306 305 304 303 301 301 302 302 301 300 299 298 298 297 297 297 296 296 295 294 294 293 293 293 293 292 292 291 291 291 291 291 290 290 289 289 289 288 288 287 287 287
283 279 279 284 289 290 288 288 290 292 291 290 289 289 290 292 294 292 294 295 292 291 294 298 299 299 300 301 302 302 301 302 306 308 308 308 308 307 306 305 306 305 305 305 304 304 304 304 303 302 302 302 300 299 298 298 298 298 298 297 297 296 295 295 295 295 294 294 294 294 293 292 292 292 292 291 291 291 290 290 289 288 288 287 287 286
280 281 285 290 290 287 287 290 292 292 293 291 287 287 289 292 292 290 292 295 295 297 297 300 302 301 301 301 299 299 301 303 305 308 310 309 307 306 306 306 306 305 304 303 303 303 303 303 303 302 302 301 301 300 299 298 298 298 298 298 297 297 297 297 297 297 296 296 296 296 295 294 293 292 292 292 292 291 291 290 290 288 287 287 286 286
283 285 288 291 291 290 290 291 290 287 291 294 291 287 288 291 293 293 296 299 300 299 298 302 304 300 301 302 297 297 299 300 302 305 307 308 307 307 307 306 305 304 303 302 302 302 303 303 302 303 302 301 301 300 299 299 299 298 298 298 298 298 298 298 298 298 298 297 297 296 295 294 293 292 292 292 292 292 291 291 290 289 287 287 286 286
290 293 294 293 294 296 295 292 291 289 292 294 291 289 291 294 295 296 298 299 297 295 295 300 297 292 297 300 294 294 298 298 300 303 304 306 307 306 305 304 303 303 303 303 303 302 303 303 303 303 302 301 301 300 299 299 299 299 298 298 298 298 298 298 299 299 299 298 297 296 295 294 293 293 293 293 293 292 292 291 291 290 288 287 287 287
292 298 300 298 297 297 294 293 293 293 294 293 291 292 295 297 297 296 297 295 293 295 298 298 291 289 296 298 291 291 296 298 300 302 303 304 305 304 304 304 304 304 303 304 305 304 304 304 304 304 303 302 301 300 300 299 298 298 297 297 297 297 298 299 299 299 299 298 298 297 296 295 294 293 293 293 293 293 292 292 291 290 289 288 287 287
294 296 295 295 297 295 291 291 293 296 296 292 291 294 296 296 295 295 295 293 295 299 300 298 293 291 295 295 292 293 295 298 300 300 300 302 303 302 303 304 305 306 306 307 307 307 307 307 307 306 305 303 302 300 299 298 297 297 297 297 298 298 299 299 299 299 298 298 298 297 296 296 295 294 294 294 294 293 293 293 292 291 290 289 288 287
296 294 291 293 295 293 292 292 294 297 296 294 295 298 299 299 296 296 294 294 299 299 296 297 294 293 296 292 289 294 295 294 295 297 298 300 301 302 302 304 305 307 308 308 309 309 308 309 308 307 307 305 302 299 298 297 297 297 297 298 299 300 300 300 299 299 298 298 297 297 296 296 296 295 294 294 293 293 293 293 293 292 291 290 289 287
299 298 296 298 295 293 296 297 296 297 298 300 303 302 304 304 300 298 296 297 303 299 296 297 294 295 300 293 288 294 294 292 294 296 298 300 301 301 302 304 305 306 306 306 308 308 308 309 309 309 309 307 303 300 298 298 298 298 299 300 300 300 301 300 300 299 299 298 298 297 296 296 296 295 295 294 293 293 293 293 293 293 292 291 289 288
305 304 300 300 300 300 303 302 303 304 304 305 305 304 305 304 302 302 302 303 303 297 297 300 297 298 300 296 294 297 297 295 294 295 296 298 300 300 301 303 304 306 306 306 307 308 308 309 309 309 309 308 305 301 300 300 301 301 302 302 302 302 302 301 300 300 299 299 298 297 296 296 296 295 295 294 294 293 293 293 293 293 292 291 290 288
306 303 301 303 304 305 305 305 306 308 308 307 306 307 307 304 304 303 301 301 299 295 298 303 304 300 297 297 298 298 297 296 294 295 295 296 298 299 302 305 306 308 308 308 309 309 309 309 310 310 309 309 307 304 302 303 303 304 304 303 304 304 303 302 301 301 300 299 298 297 297 296 296 295 295 294 294 294 293 293 293 293 292 291 290 288
308 305 305 307 306 307 306 306 306 305 307 307 305 306 306 304 305 301 299 302 300 297 299 303 304 299 297 300 297 293 291 292 294 297 298 298 299 302 306 307 308 311 311 309 311 310 310 310 310 310 309 309 308 306 306 306 306 306 306 306 305 305 303 302 301 301 300 299 299 298 298 297 296 295 295 294 294 293 293 292 292 292 292 291 290 289
306 304 304 306 305 307 307 305 303 303 306 304 300 303 304 301 300 297 298 300 298 298 301 302 302 299 298 295 290 288 289 292 297 300 303 305 305 306 309 309 310 312 312 310 311 311 311 311 310 310 310 310 310 310 310 310 309 309 308 307 306 305 304 302 301 301 300 300 300 299 299 298 297 295 294 294 293 292 292 292 292 291 291 291 290 289
304 299 301 305 305 307 307 304 306 309 307 302 303 307 304 299 296 296 297 295 297 302 303 301 301 302 301 293 290 294 297 300 304 308 310 310 309 309 310 310 311 312 311 310 311 311 311 311 311 311 312 312 312 312 312 311 311 310 308 307 306 305 304 303 302 302 301 301 300 300 299 298 297 296 294 293 293 293 292 292 291 290 290 289 289 289
306 301 303 308 309 307 305 305 309 309 305 304 307 305 301 299 298 299 300 300 304 306 302 301 302 302 301 296 295 300 303 304 306 309 311 311 310 310 309 310 310 310 310 311 311 311 311 312 313 313 313 313 313 313 312 311 310 309 308 307 306 305 304 304 303 303 302 301 300 299 298 297 296 295 294 293 293 292 292 291 290 289 289 288 288 287
305 303 306 310 308 305 306 308 311 309 306 306 305 303 303 304 303 303 303 306 309 304 299 303 304 300 299 295 295 301 305 305 305 307 309 310 310 310 310 311 311 310 311 312 312 312 311 312 314 314 313 313 313 312 312 311 310 309 308 307 306 305 305 304 304 303 302 301 300 299 298 297 296 295 294 293 293 292 291 291 290 289 288 287 287 287
307 306 307 309 307 306 309 312 311 309 308 306 303 305 308 307 304 306 306 305 306 303 300 304 307 307 305 297 296 302 304 305 306 307 308 310 311 311 311 312 311 311 311 311 312 311 312 313 314 313 313 313 313 312 311 311 310 310 309 308 307 306 305 304 304 303 303 302 301 300 299 298 296 295 294 294 294 293 292 291 291 289 288 287 286 286
309 306 304 307 307 308 311 312 309 308 308 308 309 309 309 305 302 304 304 302 302 302 301 304 307 310 308 301 299 304 305 307 309 308 309 311 312 312 312 312 311 311 312 311 311 311 313 314 314 314 313 313 313 312 312 312 311 310 309 307 307 306 305 305 304 304 303 302 301 300 299 298 296 295 294 294 293 293 292 291 291 290 289 287 286 285
310 305 301 306 310 311 311 309 305 305 306 309 312 311 309 308 306 305 305 303 302 301 301 304 304 304 307 306 305 307 307 308 310 309 309 311 312 313 313 312 312 311 311 311 311 312 313 314 314 314 314 313 313 313 313 312 311 309 308 307 307 306 305 305 304 304 304 303 302 301 299 298 296 295 294 294 293 293 293 293 292 290 289 287 286 285
309 305 302 306 311 311 308 306 305 305 305 307 311 311 308 308 309 308 306 304 304 303 300 302 300 298 304 308 308 309 309 311 313 312 311 312 313 313 313 313 312 311 311 311 312 313 314 314 314 314 314 314 314 313 312 311 310 309 308 308 307 306 306 306 305 305 305 304 303 302 301 300 298 297 296 295 295 295 295 295 294 292 290 287 285 284
308 307 306 305 307 309 307 306 307 307 307 309 312 312 309 309 309 307 303 303 305 304 300 300 298 294 300 308 310 311 311 313 315 314 312 312 313 313 313 313 312 311 311 313 314 314 315 315 315 315 315 315 314 313 312 311 310 310 309 308 308 307 307 307 306 306 305 304 304 303 302 301 300 299 298 298 297 297 297 297 296 294 291 287 285 283
311 309 309 308 309 312 311 309 308 309 313 315 314 314 313 310 309 304 300 301 303 303 302 302 299 294 297 307 311 312 312 312 314 314 313 312 312 313 313 313 312 312 313 314 315 315 316 316 315 315 315 314 314 313 313 312 311 310 310 309 309 308 308 307 307 306 305 305 304 303 302 301 301 300 300 299 298 298 298 297 296 294 291 289 287 284
312 310 312 314 316 318 317 314 310 310 315 315 313 314 313 312 312 309 306 306 305 304 306 304 299 296 299 306 310 311 311 312 313 314 314 313 313 313 314 314 313 313 315 315 316 316 316 316 316 316 316 315 315 314 313 312 312 311 310 310 310 309 309 308 307 307 306 305 304 303 302 302 301 301 300 299 299 298 298 297 296 294 293 291 289 286
313 311 314 315 313 312 311 309 308 309 313 314 313 314 314 314 315 311 309 309 305 305 308 305 300 301 304 309 312 313 313 313 314 315 314 313 314 314 314 314 314 315 316 316 316 316 317 317 317 317 316 316 315 314 313 313 312 312 311 310 310 310 309 308 308 307 306 306 305 304 303 303 302 302 301 300 299 299 298 297 296 295 294 292 290 287
316 315 315 312 305 304 304 304 308 311 313 313 313 314 314 315 316 315 313 311 307 308 308 304 304 307 309 312 314 314 314 313 313 314 314 314 314 314 314 314 315 316 317 317 317 317 317 318 317 317 316 316 315 314 314 314 313 312 311 311 310 310 309 309 308 308 307 306 305 304 303 303 303 303 302 300 299 298 298 297 296 295 295 293 291 288
320 317 316 313 308 305 305 306 310 313 313 312 314 316 316 318 319 320 318 314 312 312 309 307 311 311 311 314 316 314 314 313 313 314 315 315 316 316 316 316 317 318 318 318 318 318 318 318 317 317 317 316 316 315 314 314 313 313 312 311 311 310 310 309 309 308 307 306 305 304 304 303 303 303 302 299 297 297 297 297 296 296 295 294 293 290
321 315 313 315 313 309 308 308 310 314 315 316 318 318 319 321 322 321 316 315 316 313 307 309 313 312 312 316 316 315 315 314 314 315 316 316 316 316 317 318 318 318 318 319 319 319 319 318 317 317 317 316 316 315 315 314 314 313 313 312 312 311 311 310 310 309 308 306 305 305 304 303 303 303 301 298 296 296 296 296 295 294 293 292 292 290
320 316 313 314 315 313 312 314 316 316 317 319 321 320 320 320 321 319 314 314 316 312 309 312 314 312 315 317 317 316 316 315 315 316 316 317 317 318 319 319 319 319 319 320 319 319 318 318 317 317 317 316 316 316 316 315 314 314 313 313 312 312 312 311 310 309 307 306 305 305 304 303 302 302 300 297 295 295 295 295 294 293 292 290 289 288
320 317 316 319 319 316 317 323 325 321 320 323 323 322 321 321 320 318 315 315 316 314 314 317 315 313 315 318 316 316 317 316 316 317 318 318 318 319 320 320 320 320 320 320 319 319 318 318 318 318 317 317 317 317 316 316 315 314 314 313 313 312 312 311 310 309 307 306 306 305 304 303 302 301 299 297 295 295 295 294 293 292 291 290 288 287
322 319 320 324 323 317 318 324 324 321 323 325 325 323 323 324 321 316 316 318 318 316 317 319 317 314 315 317 316 316 318 318 318 320 319 318 319 321 321 321 322 321 321 320 319 319 319 319 318 318 318 318 318 317 317 316 315 315 314 314 313 313 312 312 310 309 308 307 307 306 305 304 302 301 299 298 297 296 295 294 293 291 290 289 288 286
324 323 321 323 321 317 318 321 319 317 318 319 320 320 318 321 321 316 316 320 319 319 319 318 316 315 315 316 317 318 320 320 320 321 320 319 321 322 323 323 322 321 321 320 319 319 320 319 319 319 319 319 318 318 317 317 316 315 315 315 314 313 313 312 310 309 308 308 307 306 305 304 302 300 299 298 298 297 295 294 293 291 290 288 287 285
327 326 321 321 320 316 318 322 321 317 315 313 316 318 316 318 322 320 318 320 321 321 319 317 315 316 317 318 319 319 320 320 321 321 320 321 323 324 323 322 321 321 321 320 320 320 320 320 320 319 319 319 319 318 318 317 317 316 316 315 314 314 313 312 311 310 309 308 307 306 305 303 301 300 299 298 297 296 295 293 292 290 289 287 286 285
328 327 322 321 321 316 319 327 325 318 314 311 313 320 318 315 319 321 318 319 322 322 320 318 317 318 319 320 320 320 320 321 322 321 320 322 324 324 322 321 321 322 321 321 321 321 321 321 320 320 320 319 319 319 319 318 318 317 316 316 315 314 313 312 312 311 310 309 308 307 305 303 302 301 299 298 297 295 294 292 290 289 287 286 284 283
328 327 324 323 322 320 323 327 322 315 316 313 313 320 320 316 319 322 319 319 323 322 321 319 319 320 321 321 321 322 321 321 321 320 321 323 324 323 322 322 322 322 322 321 322 322 322 321 321 321 320 320 319 319 319 319 318 318 317 317 316 315 314 314 313 312 311 310 309 308 306 305 303 301 300 298 297 295 293 291 290 288 286 285 283 281
328 327 326 325 325 324 323 322 319 315 317 319 318 320 321 320 322 321 319 319 323 323 321 321 321 322 323 323 322 323 321 320 320 320 322 324 324 323 323 322 322 322 322 322 322 322 322 322 321 321 321 321 320 320 320 319 319 318 318 317 316 316 315 315 314 314 313 312 311 309 308 306 305 302 300 298 297 295 293 292 290 289 287 284 282 280
331 328 327 325 325 327 325 323 322 318 315 319 320 319 320 321 320 318 317 318 322 325 325 324 323 324 324 323 324 324 322 321 320 320 322 323 324 323 323 323 323 323 322 323 323 323 322 322 322 322 321 321 321 321 321 320 320 319 319 318 318 317 317 316 316 315 314 313 312 310 309 307 305 303 301 299 297 296 294 293 290 288 286 283 281 279
334 330 329 328 327 328 327 324 322 317 315 319 320 319 321 320 318 318 318 318 322 326 327 326 325 325 324 324 324 324 323 321 320 321 323 323 323 324 323 323 323 323 323 323 323 323 323 323 322 322 322 322 322 322 322 321 321 321 320 319 319 319 318 317 317 316 315 314 313 311 310 308 306 304 302 300 298 297 295 293 290 288 285 282 280 278
332 329 331 331 328 328 328 325 322 318 319 322 321 320 321 320 321 323 321 319 324 327 327 327 326 325 325 325 325 324 324 322 321 322 323 323 323 324 324 324 324 324 324 324 324 323 323 323 323 323 323 323 323 323 322 322 322 321 321 320 320 319 319 318 318 317 316 315 314 313 312 310 308 306 304 302 300 298 296 294 291 289 286 283 280 277
329 328 329 331 330 328 328 326 323 320 321 324 323 323 324 323 324 326 321 320 325 327 327 327 326 325 325 325 324 324 323 322 322 322 323 323 323 324 324 324 324 324 324 324 324 324 324 324 324 324 324 324 324 323 323 323 322 322 322 321 321 320 320 319 318 318 318 317 316 316 314 312 310 308 306 304 302 301 298 296 294 291 288 285 282 279
329 328 328 330 330 328 327 326 324 321 324 328 326 325 328 328 325 324 323 323 326 326 326 327 326 325 325 325 324 323 322 322 322 322 323 324 324 324 324 324 325 325 324 325 325 325 325 325 325 325 325 325 324 324 324 324 323 323 323 322 322 321 321 320 320 320 319 319 319 318 317 315 313 311 309 307 306 303 301 299 296 293 290 287 284 280
329 328 328 329 329 328 328 329 327 322 325 330 328 326 330 331 325 324 325 325 326 326 326 326 326 325 325 324 324 323 323 323 323 323 323 324 324 324 325 325 325 325 325 326 326 326 326 326 326 326 326 325 325 325 325 325 324 324 324 323 323 323 322 322 322 322 321 321 321 321 320 319 316 314 312 310 309 307 304 302 299 296 293 290 286 282
330 330 328 328 330 330 329 329 328 324 326 330 330 328 330 330 327 327 327 326 326 326 326 325 325 326 325 325 324 324 324 324 324 324 324 325 325 325 325 326 326 326 326 326 326 327 327 326 326 326 326 326 326 326 326 326 325 325 325 324 324 324 324 324 324 324 324 324 323 323 323 322 320 318 316 314 312 310 307 305 302 299 296 292 288 283
330 330 328 328 330 329 326 326 328 328 328 330 330 330 331 330 330 329 328 327 327 326 326 326 326 326 326 326 325 325 325 324 325 325 325 325 326 326 326 326 327 327 327 327 327 327 327 327 327 327 327 327 328 327 327 327 327 326 326 326 326 326 326 326 326 326 326 326 326 326 326 325 324 322 320 318 316 313 311 308 306 302 299 295 290 284
332 334 332 330 330 330 328 328 330 331 330 331 330 331 331 331 330 329 328 328 327 327 327 328 327 327 327 326 326 325 325 325 325 326 326 326 326 327 327 327 327 328 328 328 328 328 328 328 328 328 328 328 328 329 329 329 328 327 327 327 327 327 328 328 328 328 327 328 328 328 328 328 327 326 324 322 319 317 315 312 309 306 303 298 293 287
334 336 335 332 332 332 330 332 335 333 331 330 330 331 332 331 330 329 329 329 328 329 329 328 328 327 327 327 326 326 326 326 326 326 327 327 327 327 328 328 328 328 329 328 329 329 329 328 329 329 329 329 329 330 330 330 329 329 329 329 329 329 329 330 330 329 329 330 330 330 330 330 330 330 328 326 325 323 320 318 315 312 307 303 298 292
332 334 335 333 332 331 329 331 334 333 328 328 331 332 332 331 330 330 330 330 330 330 329 329 328 328 327 327 327 326 326 327 327 327 328 328 328 328 328 329 329 329 329 329 329 329 329 329 329 330 330 330 330 331 331 331 331 330 330 330 331 331 331 331 331 331 331 332 332 333 333 333 333 333 333 332 330 328 326 324 321 317 313 308 301 295
331 333 333 332 331 330 329 331 334 332 329 330 332 332 331 331 330 330 331 331 331 330 329 329 329 329 328 328 327 327 327 327 328 328 328 328 328 329 329 329 329 330 330 330 330 330 330 330 330 330 331 331 331 332 332 332 332 332 332 332 333 333 333 333 333 333 333 334 335 336 337 337 336 336 337 336 336 334 332 330 327 322 319 314 307 301
334 334 334 333 333 333 332 334 335 333 330 330 331 331 331 331 331 331 332 332 331 331 330 330 329 329 329 328 328 328 328 328 329 329 329 329 329 329 329 329 330 330 330 330 331 331 331 331 331 331 332 332 332 332 332 333 333 333 334 334 335 335 334 335 335 335 336 337 338 339 340 340 340 340 341 341 341 340 338 337 334 329 326 322 317 311
336 334 334 335 333 332 333 334 334 332 330 329 330 331 332 332 332 333 333 332 332 331 331 330 330 329 329 329 329 329 329 329 329 330 330 330 330 330 330 330 330 330 331 331 331 332 332 332 332 333 333 333 333 333 333 334 334 335 336 336 336 336 336 337 337 337 338 340 341 342 342 342 343 344 345 345 346 345 344 344 342 338 336 334 328 322